Date String (YYYY-MM-DD hh:mm:ss) UTC,Instrument flags,Ambient pressure (hPa),Sample flow (lpm),Bypass flow (lpm),Sample temperature (°C),Ambient temperature (°C),ASC tube jacket temperature (°C),LED temperature (°C),Box temperature (°C),Sample RH (%),Span deviation,Mass concentration (μg/m³),Mass concentration (μg/m³),Mass concentration (μg/m³)
DateTimeUTC,F1_M11,P_M11,Q1_M11,Q2_M11,T1_M11,T2_M11,T3_M11,T4_M11,T5_M11,U1_M11,ZSPAN_M11,X0_M11,X2_M11,X1_M11
2022-02-21 11:00:00,,0811.9,4.99,0.00,22.5,21.9,00.0,31.6,24.3,07.1,0000.0,0002.86,0000.97,0000.60
2022-02-21 11:01:00,,0811.9,4.99,0.00,22.6,21.9,00.0,31.6,24.3,07.1,0000.0,0003.05,0000.96,0000.60
2022-02-21 11:02:00,,0811.9,5.01,0.00,22.5,21.9,00.0,31.6,24.3,07.1,0000.0,0003.76,0000.94,0000.60
2022-02-21 11:03:00,,0811.9,4.99,0.00,22.6,21.9,00.0,31.6,24.3,07.1,0000.0,0004.21,0000.93,0000.60
2022-02-21 11:04:00,,0811.9,4.99,0.00,22.6,21.9,00.0,31.6,24.3,07.1,0000.0,0004.60,0000.95,0000.60
2022-02-21 11:05:00,,0811.9,5.01,0.00,22.5,21.9,00.0,31.6,24.3,07.1,0000.0,0004.58,0000.96,0000.61
2022-02-21 11:06:00,,0811.9,4.99,0.00,22.5,21.8,00.0,31.6,24.3,07.1,0000.0,0004.61,0000.97,0000.61
2022-02-21 11:07:00,,0811.9,4.99,0.00,22.5,21.8,00.0,31.6,24.3,07.2,0000.0,0004.70,0000.98,0000.60
2022-02-21 11:08:00,,0811.9,5.02,0.00,22.5,21.8,00.0,31.5,24.3,07.2,0000.0,0004.08,0000.93,0000.59
2022-02-21 11:09:00,,0811.9,5.00,0.00,22.5,21.8,00.0,31.5,24.3,07.2,0000.0,0004.08,0000.94,0000.59
2022-02-21 11:10:00,,0811.9,4.99,0.00,22.5,21.8,00.0,31.5,24.3,07.2,0000.0,0004.54,0000.97,0000.60
2022-02-21 11:11:00,,0812.0,5.01,0.00,22.5,21.8,00.0,31.5,24.3,07.3,0000.0,0005.77,0000.93,0000.59
2022-02-21 11:12:00,,0811.9,5.01,0.00,22.5,21.8,00.0,31.5,24.2,07.3,0000.0,0005.74,0000.96,0000.58
2022-02-21 11:13:00,,0811.9,4.99,0.00,22.4,21.8,00.0,31.5,24.2,07.3,0000.0,0005.09,0000.97,0000.59
2022-02-21 11:14:00,,0812.0,5.01,0.00,22.4,21.8,00.0,31.5,24.2,07.3,0000.0,0004.82,0000.99,0000.60
2022-02-21 11:15:00,,0811.9,4.99,0.00,22.4,21.8,00.0,31.5,24.2,07.4,0000.0,0005.02,0000.98,0000.59
2022-02-21 11:16:00,,0811.9,5.00,0.00,22.4,21.8,00.0,31.5,24.3,07.4,0000.0,0005.82,0000.97,0000.59
2022-02-21 11:17:00,,0811.9,5.00,0.00,22.4,21.7,00.0,31.5,24.2,07.3,0000.0,0005.84,0001.01,0000.59
2022-02-21 11:18:00,,0812.0,5.00,0.00,22.4,21.7,00.0,31.5,24.2,07.3,0000.0,0005.73,0001.00,0000.59
2022-02-21 11:19:00,,0811.9,4.99,0.00,22.4,21.8,00.0,31.5,24.2,07.4,0000.0,0005.77,0001.01,0000.59
2022-02-21 11:20:00,,0811.9,5.00,0.00,22.4,21.8,00.0,31.5,24.2,07.4,0000.0,0005.62,0001.04,0000.60
2022-02-21 11:21:00,,0811.9,4.99,0.00,22.5,21.8,00.0,31.5,24.2,07.4,0000.0,0005.15,0001.03,0000.60
2022-02-21 11:22:00,,0811.9,5.01,0.00,22.5,21.9,00.0,31.5,24.2,07.4,0000.0,0003.91,0001.07,0000.59
2022-02-21 11:23:00,,0811.9,5.01,0.00,22.5,21.9,00.0,31.5,24.3,07.4,0000.0,0003.71,0001.07,0000.58
2022-02-21 11:24:00,,0811.9,5.00,0.00,22.5,21.9,00.0,31.5,24.3,07.4,0000.0,0003.99,0001.14,0000.59
2022-02-21 11:25:00,,0811.9,5.00,0.00,22.5,21.9,00.0,31.5,24.4,07.4,0000.0,0004.04,0001.14,0000.59
2022-02-21 11:26:00,,0812.0,5.00,0.00,22.5,21.9,00.0,31.5,24.4,07.4,0000.0,0003.56,0001.18,0000.59
2022-02-21 11:27:00,,0812.0,5.00,0.00,22.6,22.0,00.0,31.5,24.4,07.3,0000.0,0004.41,0001.25,0000.59
2022-02-21 11:28:00,,0812.1,4.99,0.00,22.6,22.0,00.0,31.5,24.4,07.3,0000.0,0004.69,0001.21,0000.58
2022-02-21 11:29:00,,0811.9,5.00,0.00,22.6,21.9,00.0,31.5,24.4,07.4,0000.0,0005.29,0001.19,0000.58
2022-02-21 11:30:00,,0811.9,5.01,0.00,22.6,21.9,00.0,31.5,24.3,07.3,0000.0,0005.54,0001.22,0000.58
2022-02-21 11:31:00,,0811.9,5.01,0.00,22.6,21.9,00.0,31.5,24.3,07.3,0000.0,0005.75,0001.18,0000.57
2022-02-21 11:32:00,,0811.9,4.99,0.00,22.5,21.9,00.0,31.5,24.3,07.5,0000.0,0005.88,0001.17,0000.57
2022-02-21 11:33:00,,0811.9,5.00,0.00,22.5,21.9,00.0,31.5,24.3,07.4,0000.0,0007.20,0001.12,0000.57
2022-02-21 11:34:00,,0811.9,4.99,0.00,22.5,21.8,00.0,31.5,24.3,07.4,0000.0,0007.89,0001.10,0000.57
2022-02-21 11:35:00,,0811.9,5.02,0.00,22.5,21.8,00.0,31.5,24.3,07.4,0000.0,0007.90,0001.12,0000.57
2022-02-21 11:36:00,,0811.9,5.00,0.00,22.5,21.8,00.0,31.5,24.3,07.4,0000.0,0007.86,0001.10,0000.56
2022-02-21 11:37:00,,0811.9,4.99,0.00,22.5,21.8,00.0,31.5,24.3,07.4,0000.0,0007.90,0001.07,0000.55
2022-02-21 11:38:00,,0811.9,4.99,0.00,22.5,21.8,00.0,31.5,24.2,07.4,0000.0,0008.12,0001.00,0000.55
2022-02-21 11:39:00,,0811.9,5.01,0.00,22.4,21.7,00.0,31.5,24.2,07.4,0000.0,0007.76,0000.97,0000.54
2022-02-21 11:40:00,,0811.9,4.99,0.00,22.4,21.7,00.0,31.5,24.2,07.5,0000.0,0007.65,0001.01,0000.54
2022-02-21 11:41:00,,0812.0,5.01,0.00,22.4,21.7,00.0,31.5,24.2,07.5,0000.0,0007.40,0001.03,0000.55
2022-02-21 11:42:00,,0811.9,5.00,0.00,22.4,21.7,00.0,31.5,24.2,07.5,0000.0,0007.27,0001.06,0000.56
2022-02-21 11:43:00,,0811.9,4.99,0.00,22.4,21.7,00.0,31.5,24.1,07.5,0000.0,0007.07,0001.04,0000.55
2022-02-21 11:44:00,,0811.9,4.99,0.00,22.4,21.6,00.0,31.4,24.1,07.6,0000.0,0005.43,0001.04,0000.55
2022-02-21 11:45:00,,0811.9,5.00,0.00,22.3,21.6,00.0,31.4,24.1,07.6,0000.0,0004.32,0001.04,0000.55
2022-02-21 11:46:00,,0811.9,5.01,0.00,22.3,21.6,00.0,31.4,24.1,07.6,0000.0,0003.92,0000.94,0000.56
2022-02-21 11:47:00,,0811.9,4.99,0.00,22.3,21.5,00.0,31.4,24.0,07.7,0000.0,0003.73,0000.91,0000.56
2022-02-21 11:48:00,,0811.8,4.99,0.00,22.2,21.5,00.0,31.4,24.0,07.6,0000.0,0003.38,0000.91,0000.56
2022-02-21 11:49:00,,0811.7,5.01,0.00,22.2,21.5,00.0,31.4,23.9,07.6,0000.0,0002.17,0000.92,0000.56
2022-02-21 11:50:00,,0811.7,5.01,0.00,22.2,21.4,00.0,31.3,23.9,07.7,0000.0,0001.93,0000.95,0000.57
2022-02-21 11:51:00,,0811.7,4.99,0.00,22.1,21.4,00.0,31.3,23.8,07.8,0000.0,0002.00,0000.90,0000.57
2022-02-21 11:52:00,,0811.7,5.00,0.00,22.1,21.3,00.0,31.3,23.8,07.9,0000.0,0001.93,0000.84,0000.56
2022-02-21 11:53:00,,0811.7,5.01,0.00,22.1,21.3,00.0,31.3,23.8,07.9,0000.0,0002.07,0000.82,0000.56
2022-02-21 11:54:00,,0811.8,5.00,0.00,22.0,21.3,00.0,31.3,23.8,07.8,0000.0,0002.95,0000.84,0000.55
2022-02-21 11:55:00,,0811.7,5.00,0.00,22.0,21.3,00.0,31.2,23.7,07.8,0000.0,0003.15,0000.85,0000.55
2022-02-21 11:56:00,,0811.7,5.00,0.00,22.0,21.3,00.0,31.2,23.7,07.9,0000.0,0003.20,0000.87,0000.55
2022-02-21 11:57:00,,0811.7,4.99,0.00,22.0,21.2,00.0,31.2,23.6,08.0,0000.0,0003.26,0000.89,0000.55
2022-02-21 11:58:00,,0811.7,4.99,0.00,21.9,21.2,00.0,31.2,23.6,07.9,0000.0,0003.23,0000.89,0000.55
2022-02-21 11:59:00,,0811.7,5.01,0.00,21.9,21.2,00.0,31.1,23.6,07.8,0000.0,0004.04,0000.86,0000.55
